Regional Weather Roundup
Issued by NWS Mt. Holly, NJ

Home | Current Version | Previous Version | Text Only | Print | Product List | Glossary On
Versions: 1 2 3 4 5 6 7 8 9 10 11 12 13 14 15 16 17 18 19 20 21 22 23 24 25 26 27 28
000
ASUS41 KPHI 162010
RWRPHI

REGIONAL WEATHER ROUNDUP
NATIONAL WEATHER SERVICE MOUNT HOLLY NJ
400 PM EDT WED APR 16 2014

NOTE:  "FAIR" INDICATES FEW OR NO CLOUDS BELOW 12,000 FEET WITH NO
SIGNIFICANT WEATHER AND/OR OBSTRUCTIONS TO VISIBILITY.

 * = STATION DOES NOT REPORT PRECIPITATION (E.G. RAIN, SNOW, ETC.)
        OR FOG.

NJZ015>026-162100-
SOUTHERN NEW JERSEY

CITY           SKY/WX    TMP DP  RH WIND       PRES   REMARKS
POMONA         SUNNY     49  21  33 N12G21    30.39F
RIO GRANDE*    SUNNY     46  21  36 NW10G16   30.41S
MILLVILLE      SUNNY     47  21  35 N12G23    30.40F
WRIGHTSTOWN    SUNNY     47  21  36 N13       30.39S
MOUNT HOLLY    SUNNY     47  22  37 N14G20    30.42S
TRENTON        SUNNY     46  19  34 N15G25    30.42S

$$
NJZ001>014-162100-
NORTHERN NEW JERSEY

CITY           SKY/WX    TMP DP  RH WIND       PRES   REMARKS
SUSSEX           N/A     44  16  32 CALM      30.42R
ANDOVER*         N/A     42  16  34 N8G21     30.42S
MORRISTOWN     SUNNY     46  16  29 N13G18    30.43S
NEWARK         MOSUNNY   49  16  26 NW10G22   30.41S
TETERBORO      SUNNY     48  18  30 N12G18    30.41S
CALDWELL       SUNNY     46  16  30 VRB7G20   30.42S
SOMERVILLE     SUNNY     47  16  29 N10G21    30.41F
ALLAIRE*       SUNNY     46  19  34 N12G18    30.40S
TOMS RIVER*    SUNNY     46  19  34 N10       30.41S

$$
PAZ043-044-047-054-055-060>062-066>071-162100-
EASTERN PENNSYLVANIA

CITY           SKY/WX    TMP DP  RH WIND       PRES   REMARKS
PHILADELPHIA   SUNNY     47  15  27 N9        30.44S
NORTH PHILA    SUNNY     49  19  30 N13       30.44S
BLUE BELL      SUNNY     46  21  36 N6        30.42S
DOYLESTOWN     SUNNY     45  20  36 NW10G18   30.42S
QUAKERTOWN*    SUNNY     43  18  36 NW13      30.43F
POTTSTOWN      SUNNY     45  20  36 N10G17    30.45S
LANCASTER      SUNNY     44  20  38 MISG      30.44F
READING        SUNNY     46  19  34 VRB7G18   30.43F
ALLENTOWN      SUNNY     45  18  34 NW14      30.44F
MOUNT POCONO   SUNNY     36  17  46 NW13G20   30.37R WCI  27
HAZLETON       SUNNY     37  14  38 NE7       30.43S WCI  32
WILKES BARRE   MOSUNNY   39  19  44 N7        30.44S WCI  34

$$
DEZALL-MDZ008-012-015-019-020-162100-
DELAWARE AND EASTERN MARYLAND

CITY           SKY/WX    TMP DP  RH WIND       PRES   REMARKS
WILMINGTON     SUNNY     48  19  31 N16       30.44F
DOVER          SUNNY     48  21  34 NW17      30.38S
GEORGETOWN     SUNNY     48  22  35 NE17      30.41S
EASTON         SUNNY     48  25  40 NE13      30.46S
PATUXENT       SUNNY     47  18  31 N15       30.42F
OCEAN CITY       N/A    N/A N/A N/A NE15G21   30.40S
WALLOPS ISLAND SUNNY     51  21  30 N10G16    30.39S
CAMBRIDGE      SUNNY     48  19  32 N13G18    30.41S
SALISBURY      SUNNY     51  24  34 NE12G18   30.39F

$$
PAZ001-021-NYZ056-072-MDZ011-DCZ001-162100-
OTHER NEARBY LOCATIONS

CITY           SKY/WX    TMP DP  RH WIND       PRES   REMARKS
HARRISBURG     SUNNY     46  14  27 N7        30.45F
STATE COLLEGE  SUNNY     43   1  17 N8        30.42F
WILLIAMSPORT   SUNNY     44  13  28 NE9       30.45S
BINGHAMTON     SUNNY     34  15  46 N7G20     30.42R WCI  28
NEW YORK CITY  SUNNY     48  17  29 VRB3      30.43F
BALTIMORE      MOSUNNY   48  14  25 N8        30.42F
WASHINGTON DC  MOSUNNY   50  17  27 N10G21    30.44F

$$



USA.gov is the U.S. government's official web portal to all federal, state and local government web resources and services.